Location: Noverd
(38.0910°N, 121.6877°W)
Time: 00:31:48
(UTC+00:00)

Cosmos 2100 Rocket - Pass Details

Date: 19 May 2026
Orbit: 956 x 999 km, 82.9° (Epoch: 10 June)

Event Time Altitude Azimuth Distance (km) Brightness Sun altitude
Rises 04:10:56 0° 211° (SSW) 3,656 7.0 -10.5°
Reaches altitude 10° 04:13:40 10° 220° (SW) 2,720 6.4 -11.0°
Maximum altitude 04:19:16 34° 284° (WNW) 1,552 5.8 -11.9°
Drops below altitude 10° 04:24:59 10° 349° (NNW) 2,760 7.1 -12.8°
Sets 04:27:48 0° 358° (N) 3,718 7.7 -13.2°
